SCP
0 0 0 -0 -0 -0 -0 -0 -0 -0 -0 -0 -0 -0 0 -0 -0 -0 -0 -0 -0 -0 -0 -0 -0 -0 -0 -0 -0 0 0 0
0 0 0 -0 -0 -0 0 -0 -0 -0 -0 -0 -0 -0 -0 -0 -0 -0 -0 -0 -0 -0 -0 -0 -0 -0 -0 -0 -0 0 0 0
0 -0 -0 -0 -0 0 -0 -0 -0 -0 -0 -0 -0 -0 -0 -0 -0 -0 -0 0 -0 -0 -0 -0 0 -0 -0 0 0 0 0 0
0 -0 -0 0 -0 -0 -0 -0 -0 -0 -0 -0 -0 -0 0 0 0 0 -0 0 -0 0 -0 0 0 0 0 0 0 0 0 0
0 0 -0 -0 -0 -0 -0 -0 -0 -0 -0 -0 -0 0 0 0 -0 0 0 -0 0 0 0 0 0 -0 0 0 0 0 0 0
0 0 -0 0 -0 -0 -0 -0 -0 -1 -0 -0 0 0 0 0 0 0 0 0 0 -0 -0 0 0 -0 -0 0 0 0 0 0
0 0 -0 -0 -0 -0 -0 -0 -1 -1 -1 -0 -0 0 0 0 0 0 0 0 0 0 0 0 0 0 0 0 0 0 0 0
-0 -0 -0 -0 0 -0 -0 -0 -0 -0 -0 -0 -0 0 0 0 -0 0 0 0 0 0 0 0 0 0 0 0 0 0 0 0
-0 -0 -0 -0 0 -0 0 -0 -0 -0 -0 -0 -0 0 0 0 0 0 0 0 0 0 0 0 0 0 0 0 0 0 0 0
0 -0 -0 -0 0 0 0 -0 -0 -0 0 0 0 0 0 0 0 0 0 0 0 0 0 0 0 0 0 0 0 0 0 0
0 -0 -0 -0 0 -0 0 0 -0 -0 0 0 0 0 0 0 0 0 0 0 0 0 0 0 0 0 0 0 0 0 0 0
0 -0 0 -0 -0 -0 -0 -0 -0 -0 0 0 0 0 0 0 0 0 0 0 0 0 0 0 0 0 0 0 0 0 0 0
-0 0 0 0 0 -0 -0 -0 -0 0 0 0 0 0 0 0 0 0 0 0 0 0 0 0 0 0 0 0 0 0 0 0
0 0 -0 0 -0 -0 -0 0 0 0 0 0 0 0 0 0 0 0 0 0 0 0 0 0 0 0 0 0 0 0 0 0
-0 -0 -0 0 0 -0 0 0 0 0 0 0 0 0 0 0 0 0 0 0 0 0 0 0 0 0 0 0 0 0 0 0
-0 -0 0 0 0 -0 -0 0 0 0 0 0 0 0 0 0 0 0 0 0 0 0 0 0 0 0 0 0 0 0 0 0
-0 0 -0 0 0 -0 -0 -0 0 0 0 0 0 0 0 0 0 0 0 0 0 0 0 0 0 0 0 0 0 0 0 0
0 0 0 0 0 0 -0 0 0 0 0 0 0 0 0 0 0 0 0 0 0 0 0 0 0 0 0 0 0 0 0 0
-0 0 0 0 -0 0 0 -0 0 0 0 0 0 0 0 0 0 0 0 0 0 0 0 0 0 0 0 0 0 0 0 0
-0 0 -0 0 0 -0 0 -0 0 0 0 0 0 0 0 0 0 0 0 0 0 0 0 0 0 0 0 0 0 0 0 0
Wind_Speed_500mb
10 4 15 10 40 40 51 46 47 35 41 32 37 40 30 26 29 36 32 30 34 30 29 27 25 23 21 19 18 16 14 13
13 13 34 40 37 67 25 20 50 44 36 40 26 20 23 19 33 33 34 34 34 30 29 30 29 27 25 23 21 18 15 12
24 39 39 28 58 76 31 39 32 56 40 43 36 35 26 24 27 32 31 43 38 33 33 35 34 33 31 27 25 23 19 13
12 33 32 24 44 33 41 52 56 57 47 42 30 29 28 26 28 25 26 33 43 39 37 41 42 41 38 35 33 30 27 22
11 33 31 23 60 43 21 42 36 49 40 42 31 28 29 28 28 28 27 26 37 38 31 32 38 38 37 36 36 34 31 27
20 23 24 37 48 50 34 28 27 48 28 35 33 30 31 31 29 35 42 35 24 29 35 32 30 37 40 40 36 34 30 23
39 23 19 43 34 38 33 45 47 52 50 44 37 35 36 41 34 30 27 24 28 23 21 19 24 31 32 33 34 37 36 31
31 27 30 38 30 35 37 39 42 44 41 39 35 34 38 38 40 38 29 22 22 25 26 25 20 21 20 22 26 35 46 47
40 42 36 29 18 84 14 29 33 38 39 35 29 34 42 34 28 24 22 18 20 22 16 22 21 15 18 25 27 29 37 52
33 30 32 27 24 39 32 41 33 35 34 31 31 32 27 29 29 26 21 21 18 18 17 17 13 15 18 22 27 28 30 40
20 29 31 29 29 27 31 33 35 36 32 31 29 29 31 29 27 25 22 18 15 12 22 22 22 21 20 23 24 25 25 35
19 26 20 31 31 23 28 33 36 35 33 32 32 29 27 24 23 23 22 18 15 14 20 16 17 24 19 25 21 22 24 32
21 21 21 33 19 25 31 33 35 35 33 33 30 28 24 23 20 16 16 17 22 17 18 19 24 21 22 26 20 21 19 28
37 13 23 24 17 26 35 34 35 35 35 35 30 28 24 22 17 16 14 13 11 7 11 20 31 21 18 23 15 18 20 28
37 61 35 20 10 39 36 34 35 35 35 35 33 29 22 19 16 13 11 8 4 16 21 22 29 20 15 16 14 20 21 25
44 38 50 28 14 36 41 36 38 38 39 39 41 36 26 25 19 13 9 5 10 16 23 23 23 13 13 14 17 22 24 36
47 54 68 10 16 39 48 40 42 44 44 43 42 44 35 25 19 12 4 7 6 17 25 23 22 17 15 16 18 19 25 37
10 24 11 10 24 31 48 48 47 42 44 50 46 51 44 32 23 10 6 7 12 18 27 25 18 21 16 17 13 14 30 27
37 20 15 18 29 28 47 53 45 43 40 54 52 51 48 32 25 19 8 4 9 19 25 25 19 14 14 7 11 15 21 35
36 34 26 10 26 37 37 36 37 48 45 50 51 47 45 36 29 19 11 7 5 18 16 20 19 12 18 18 17 26 23 31
Wind_Direction_500mb
112 251 253 133 82 45 351 52 62 81 67 58 88 78 94 85 82 80 60 58 61 54 55 56 50 46 45 42 40 35 27 15
146 192 224 71 90 90 277 23 130 107 78 76 81 97 91 83 106 82 76 51 57 56 56 56 54 49 44 37 33 25 13 343
195 190 59 71 117 123 201 94 67 89 99 93 85 98 106 83 89 85 74 46 55 63 67 68 68 64 58 53 48 43 37 25
126 85 77 78 82 138 143 84 107 94 99 97 102 103 105 99 96 88 89 69 57 67 70 73 65 56 51 45 41 39 36 31
321 89 66 63 82 73 347 109 123 116 106 108 110 107 105 103 94 87 105 90 65 71 57 59 54 41 33 32 32 27 28 28
97 91 93 84 77 116 182 89 101 128 126 115 124 116 110 106 94 99 97 101 85 82 63 46 28 33 18 16 19 19 16 14
110 110 137 93 99 91 96 77 74 78 108 123 125 124 122 116 104 97 97 100 106 101 77 56 40 34 21 12 355 354 354 351
124 130 91 92 114 128 109 106 100 102 116 127 134 140 135 134 121 113 104 93 102 85 47 32 39 21 12 357 1 344 336 338
98 100 99 111 126 96 312 127 129 127 134 141 162 162 129 119 116 117 113 97 54 58 87 80 27 17 356 355 343 345 336 328
105 107 118 100 92 75 99 105 123 129 137 143 143 125 121 127 120 106 102 91 77 76 45 28 31 11 352 352 346 344 345 324
123 130 113 135 109 104 107 121 128 134 142 148 126 130 118 109 110 115 105 90 77 61 68 2 355 10 354 329 351 344 340 322
158 114 146 104 120 118 131 135 139 148 152 138 135 132 120 114 109 113 108 91 72 34 358 21 14 9 357 325 359 341 346 338
153 160 133 157 158 138 155 153 155 154 152 145 146 143 139 131 120 116 101 120 95 37 16 14 348 3 0 329 358 344 354 321
355 255 168 201 178 144 166 164 162 163 157 156 155 153 143 130 127 112 100 62 359 37 19 7 338 359 349 324 348 346 342 328
328 304 297 141 156 163 181 178 172 173 169 167 163 144 140 142 138 113 112 115 42 332 354 0 340 7 354 358 354 0 341 319
189 244 268 193 184 161 174 192 185 186 181 182 168 156 155 140 127 122 113 71 345 336 357 7 344 16 13 16 8 12 332 338
188 199 234 198 213 162 168 198 210 190 191 180 161 159 155 154 134 125 84 10 6 346 359 10 356 9 33 23 7 18 342 346
103 147 201 260 239 189 171 192 208 201 197 170 166 159 157 156 150 168 86 40 353 1 359 11 39 6 49 15 7 10 352 349
278 155 207 252 262 252 179 178 201 213 195 169 170 165 156 153 156 165 137 82 18 358 4 20 52 17 66 35 351 357 4 352
273 287 276 289 256 269 167 175 191 208 178 173 172 166 158 154 157 155 148 117 357 1 27 12 36 35 25 39 21 359 8 0
Wind_Speed_850mb
10 4 15 10 40 40 51 46 47 35 41 32 37 40 30 26 29 36 32 30 34 30 29 27 25 23 21 19 18 16 14 13
13 13 34 40 37 67 25 20 50 44 36 40 26 20 23 19 33 33 34 34 34 30 29 30 29 27 25 23 21 18 15 12
24 39 39 28 58 76 31 39 32 56 40 43 36 35 26 24 27 32 31 43 38 33 33 35 34 33 31 27 25 23 19 13
12 33 32 24 44 33 41 52 56 57 47 42 30 29 28 26 28 25 26 33 43 39 37 41 42 41 38 35 33 30 27 22
11 33 31 23 60 43 21 42 36 49 40 42 31 28 29 28 28 28 27 26 37 38 31 32 38 38 37 36 36 34 31 27
20 23 24 37 48 50 34 28 27 48 28 35 33 30 31 31 29 35 42 35 24 29 35 32 30 37 40 40 36 34 30 23
39 23 19 43 34 38 33 45 47 52 50 44 37 35 36 41 34 30 27 24 28 23 21 19 24 31 32 33 34 37 36 31
31 27 30 38 30 35 37 39 42 44 41 39 35 34 38 38 40 38 29 22 22 25 26 25 20 21 20 22 26 35 46 47
40 42 36 29 18 84 14 29 33 38 39 35 29 34 42 34 28 24 22 18 20 22 16 22 21 15 18 25 27 29 37 52
33 30 32 27 24 39 32 41 33 35 34 31 31 32 27 29 29 26 21 21 18 18 17 17 13 15 18 22 27 28 30 40
20 29 31 29 29 27 31 33 35 36 32 31 29 29 31 29 27 25 22 18 15 12 22 22 22 21 20 23 24 25 25 35
19 26 20 31 31 23 28 33 36 35 33 32 32 29 27 24 23 23 22 18 15 14 20 16 17 24 19 25 21 22 24 32
21 21 21 33 19 25 31 33 35 35 33 33 30 28 24 23 20 16 16 17 22 17 18 19 24 21 22 26 20 21 19 28
37 13 23 24 17 26 35 34 35 35 35 35 30 28 24 22 17 16 14 13 11 7 11 20 31 21 18 23 15 18 20 28
37 61 35 20 10 39 36 34 35 35 35 35 33 29 22 19 16 13 11 8 4 16 21 22 29 20 15 16 14 20 21 25
44 38 50 28 14 36 41 36 38 38 39 39 41 36 26 25 19 13 9 5 10 16 23 23 23 13 13 14 17 22 24 36
47 54 68 10 16 39 48 40 42 44 44 43 42 44 35 25 19 12 4 7 6 17 25 23 22 17 15 16 18 19 25 37
10 24 11 10 24 31 48 48 47 42 44 50 46 51 44 32 23 10 6 7 12 18 27 25 18 21 16 17 13 14 30 27
37 20 15 18 29 28 47 53 45 43 40 54 52 51 48 32 25 19 8 4 9 19 25 25 19 14 14 7 11 15 21 35
36 34 26 10 26 37 37 36 37 48 45 50 51 47 45 36 29 19 11 7 5 18 16 20 19 12 18 18 17 26 23 31
Wind_Direction_850mb
112 251 253 133 82 45 351 52 62 81 67 58 88 78 94 85 82 80 60 58 61 54 55 56 50 46 45 42 40 35 27 15
146 192 224 71 90 90 277 23 130 107 78 76 81 97 91 83 106 82 76 51 57 56 56 56 54 49 44 37 33 25 13 343
195 190 59 71 117 123 201 94 67 89 99 93 85 98 106 83 89 85 74 46 55 63 67 68 68 64 58 53 48 43 37 25
126 85 77 78 82 138 143 84 107 94 99 97 102 103 105 99 96 88 89 69 57 67 70 73 65 56 51 45 41 39 36 31
321 89 66 63 82 73 347 109 123 116 106 108 110 107 105 103 94 87 105 90 65 71 57 59 54 41 33 32 32 27 28 28
97 91 93 84 77 116 182 89 101 128 126 115 124 116 110 106 94 99 97 101 85 82 63 46 28 33 18 16 19 19 16 14
110 110 137 93 99 91 96 77 74 78 108 123 125 124 122 116 104 97 97 100 106 101 77 56 40 34 21 12 355 354 354 351
124 130 91 92 114 128 109 106 100 102 116 127 134 140 135 134 121 113 104 93 102 85 47 32 39 21 12 357 1 344 336 338
98 100 99 111 126 96 312 127 129 127 134 141 162 162 129 119 116 117 113 97 54 58 87 80 27 17 356 355 343 345 336 328
105 107 118 100 92 75 99 105 123 129 137 143 143 125 121 127 120 106 102 91 77 76 45 28 31 11 352 352 346 344 345 324
123 130 113 135 109 104 107 121 128 134 142 148 126 130 118 109 110 115 105 90 77 61 68 2 355 10 354 329 351 344 340 322
158 114 146 104 120 118 131 135 139 148 152 138 135 132 120 114 109 113 108 91 72 34 358 21 14 9 357 325 359 341 346 338
153 160 133 157 158 138 155 153 155 154 152 145 146 143 139 131 120 116 101 120 95 37 16 14 348 3 0 329 358 344 354 321
355 255 168 201 178 144 166 164 162 163 157 156 155 153 143 130 127 112 100 62 359 37 19 7 338 359 349 324 348 346 342 328
328 304 297 141 156 163 181 178 172 173 169 167 163 144 140 142 138 113 112 115 42 332 354 0 340 7 354 358 354 0 341 319
189 244 268 193 184 161 174 192 185 186 181 182 168 156 155 140 127 122 113 71 345 336 357 7 344 16 13 16 8 12 332 338
188 199 234 198 213 162 168 198 210 190 191 180 161 159 155 154 134 125 84 10 6 346 359 10 356 9 33 23 7 18 342 346
103 147 201 260 239 189 171 192 208 201 197 170 166 159 157 156 150 168 86 40 353 1 359 11 39 6 49 15 7 10 352 349
278 155 207 252 262 252 179 178 201 213 195 169 170 165 156 153 156 165 137 82 18 358 4 20 52 17 66 35 351 357 4 352
273 287 276 289 256 269 167 175 191 208 178 173 172 166 158 154 157 155 148 117 357 1 27 12 36 35 25 39 21 359 8 0